Change the Weather History Date:

Tuesday, April 15, 2014

  Actual Average Record
Temperature  
Mean Temperature 47 °F -  
Max Temperature 62 °F 54 °F 77 °F (2003)
Min Temperature 33 °F 31 °F 23 °F (1997)
Degree Days  
Heating Degree Days 18    
Moisture  
Dew Point 52 °F    
Average Humidity 87    
Maximum Humidity 93    
Minimum Humidity 77    
Precipitation  
Precipitation 1.06 in - - ()
Sea Level Pressure  
Sea Level Pressure 29.67 in    
Wind  
Wind Speed 14 mph (SSW)    
Max Wind Speed 24 mph    
Max Gust Speed 39 mph    
Visibility 5 miles    
Events Rain , Snow    
Averages and records for this station are not official NWS values.
T = Trace of Precipitation, MM = Missing Value Source: NWS Daily Summary

Daily Weather History Graph

Daily Weather History Graph

Search for Another Location

Airport or City:

Trip Planner

Search our weather history database for the weather conditions in past years. The results will help you decide how hot, cold, wet, or windy it might be!

Date:

Astronomy

Apr. 15, 2014 Rise Set
Actual Time 6:06 AM EDT 7:30 PM EDT
Civil Twilight 5:37 AM EDT 7:59 PM EDT
Nautical Twilight 5:01 AM EDT 8:35 PM EDT
Astronomical Twilight 4:24 AM EDT 9:13 PM EDT
Moon 8:09 PM EDT (4/15) 6:12 AM EDT (4/15)
Length of Visible Light 14h 22m
Length of Day
13h 23m
Full, 100% of the Moon is Illuminated
Apr 15
Full
Apr 22
Last Quarter
Apr 29
New
May 6
First Quarter
May 14
Full

Hourly Weather History & Observations

Time (EDT) Temp. Windchill Dew Point Humidity Pressure Visibility Wind Dir Wind Speed Gust Speed Precip Events Conditions
12:52 AM 60.1 °F - 53.1 °F 78% 29.87 in 10.0 mi SSW 11.5 mph 26.5 mph N/A   Overcast
1:52 AM 61.0 °F - 54.0 °F 78% 29.86 in 10.0 mi SSW 15.0 mph 25.3 mph N/A   Overcast
2:47 AM 60.8 °F - 53.6 °F 77% 29.84 in 10.0 mi SSW 10.4 mph 33.4 mph N/A   Overcast
2:52 AM 60.1 °F - 54.0 °F 80% 29.85 in 10.0 mi SSW 12.7 mph 21.9 mph N/A   Overcast
3:12 AM 60.1 °F - 54.0 °F 80% 29.83 in 10.0 mi South 12.7 mph 19.6 mph N/A   Overcast
3:52 AM 61.0 °F - 54.0 °F 78% 29.83 in 10.0 mi South 13.8 mph 23.0 mph N/A   Overcast
4:52 AM 61.0 °F - 54.0 °F 78% 29.82 in 10.0 mi South 13.8 mph - N/A   Overcast
5:52 AM 61.0 °F - 55.0 °F 81% 29.81 in 10.0 mi SSW 15.0 mph 25.3 mph N/A   Overcast
6:24 AM 61.0 °F - 55.0 °F 81% 29.79 in 10.0 mi South 16.1 mph 21.9 mph N/A   Overcast
6:52 AM 61.0 °F - 55.0 °F 81% 29.79 in 10.0 mi South 17.3 mph 26.5 mph N/A   Overcast
7:52 AM 61.0 °F - 55.9 °F 83% 29.78 in 9.0 mi South 16.1 mph 24.2 mph 0.00 in Rain Light Rain
8:52 AM 59.0 °F - 55.9 °F 90% 29.75 in 2.5 mi South 17.3 mph 23.0 mph 0.04 in Rain Rain
8:59 AM 59.0 °F - 55.9 °F 90% 29.74 in 3.0 mi South 15.0 mph 23.0 mph 0.01 in Rain Light Rain
9:02 AM 59.0 °F - 55.9 °F 90% 29.74 in 2.0 mi South 13.8 mph 23.0 mph 0.04 in Rain Heavy Rain
9:09 AM 59.0 °F - 55.9 °F 90% 29.73 in 1.5 mi South 18.4 mph 27.6 mph 0.06 in Rain Rain
9:27 AM 59.0 °F - 55.9 °F 90% 29.72 in 2.0 mi South 9.2 mph 19.6 mph 0.10 in Rain Light Rain
9:35 AM 59.0 °F - 55.9 °F 90% 29.72 in 1.5 mi South 13.8 mph 21.9 mph 0.13 in Rain Rain
9:41 AM 59.0 °F - 55.9 °F 90% 29.71 in 2.0 mi South 11.5 mph - 0.14 in Rain Light Rain
9:52 AM 60.1 °F - 57.0 °F 90% 29.73 in 4.0 mi South 15.0 mph 23.0 mph 0.14 in Rain Light Rain
10:07 AM 59.0 °F - 57.0 °F 93% 29.71 in 2.0 mi South 11.5 mph - 0.04 in Rain Heavy Rain
10:22 AM 60.1 °F - 57.0 °F 90% 29.70 in 1.8 mi South 12.7 mph - 0.12 in Rain Heavy Rain
10:30 AM 60.1 °F - 57.0 °F 90% 29.69 in 2.0 mi South 11.5 mph - 0.13 in Rain Rain
10:43 AM 60.1 °F - 57.0 °F 90% 29.69 in 1.8 mi South 12.7 mph - 0.18 in Rain Rain
10:47 AM 60.8 °F - 57.2 °F 88% 29.69 in 2.0 mi South 15.0 mph - 0.19 in Rain Rain
10:52 AM 60.1 °F - 57.0 °F 90% 29.70 in 2.5 mi South 12.7 mph - 0.20 in Rain Rain
11:38 AM 61.0 °F - 57.9 °F 90% 29.66 in 1.5 mi South 17.3 mph 29.9 mph 0.07 in Rain Rain
11:46 AM 60.8 °F - 57.2 °F 88% 29.66 in 3.0 mi South 20.7 mph 28.8 mph 0.07 in Rain Light Rain
11:47 AM 61.0 °F - 57.9 °F 90% 29.67 in 3.0 mi South 23.0 mph 28.8 mph 0.07 in Rain Light Rain
12:52 PM 61.0 °F - 57.9 °F 90% 29.62 in 1.8 mi South 19.6 mph 28.8 mph 0.05 in Rain Rain
12:58 PM 61.0 °F - 57.9 °F 90% 29.61 in 2.5 mi South 18.4 mph 33.4 mph 0.01 in Rain Light Rain
1:12 PM 61.0 °F - 57.0 °F 87% 29.61 in 2.5 mi South 20.7 mph 29.9 mph 0.03 in Rain Light Rain
1:32 PM 60.1 °F - 57.0 °F 90% 29.61 in 2.5 mi South 19.6 mph 27.6 mph 0.08 in Rain Light Rain
1:41 PM 60.1 °F - 57.0 °F 90% 29.61 in 2.0 mi South 24.2 mph 38.0 mph 0.12 in Rain Rain
1:52 PM 61.0 °F - 57.0 °F 87% 29.61 in 3.0 mi South 16.1 mph 29.9 mph 0.15 in Rain Rain
2:00 PM 60.1 °F - 57.0 °F 90% 29.59 in 2.5 mi South 18.4 mph 28.8 mph 0.02 in Rain Rain
2:09 PM 60.1 °F - 57.0 °F 90% 29.59 in 3.0 mi South 15.0 mph 26.5 mph 0.03 in Rain Light Rain
2:16 PM 60.1 °F - 57.0 °F 90% 29.59 in 2.5 mi South 17.3 mph 25.3 mph 0.04 in Rain Light Rain
2:40 PM 60.1 °F - 57.0 °F 90% 29.58 in 1.8 mi South 16.1 mph 28.8 mph 0.11 in Rain Heavy Rain
2:46 PM 60.8 °F - 57.2 °F 88% 29.57 in 2.0 mi South 15.0 mph 28.8 mph 0.13 in Rain Rain
2:52 PM 60.1 °F - 57.0 °F 90% 29.58 in 3.0 mi South 17.3 mph - 0.15 in Rain Rain
3:03 PM 60.1 °F - 57.0 °F 90% 29.56 in 4.0 mi South 12.7 mph 25.3 mph 0.01 in Rain Light Rain
3:08 PM 60.1 °F - 57.0 °F 90% 29.56 in 2.5 mi South 15.0 mph 32.2 mph 0.02 in Rain Rain
3:34 PM 60.1 °F - 57.0 °F 90% 29.53 in 3.0 mi South 13.8 mph 24.2 mph 0.04 in Rain Light Rain
3:52 PM 60.1 °F - 57.0 °F 90% 29.54 in 4.0 mi South 18.4 mph 31.1 mph 0.06 in Rain Light Rain
4:44 PM 61.0 °F - 57.9 °F 90% 29.52 in 7.0 mi South 20.7 mph 31.1 mph 0.05 in Rain Light Rain
5:22 PM 61.0 °F - 57.0 °F 87% 29.52 in 10.0 mi South 21.9 mph 39.1 mph 0.02 in Rain Light Rain
5:52 PM 61.0 °F - 55.9 °F 83% 29.53 in 10.0 mi South 20.7 mph 31.1 mph 0.02 in Rain Light Rain
6:15 PM 60.1 °F - 55.9 °F 86% 29.53 in 8.0 mi SSW 16.1 mph 28.8 mph 0.01 in Rain Light Rain
6:30 PM 59.0 °F - 55.9 °F 90% 29.54 in 2.5 mi SW 10.4 mph 18.4 mph 0.05 in Rain Rain
6:41 PM 55.0 °F - 51.1 °F 86% 29.55 in 3.0 mi West 12.7 mph 24.2 mph 0.07 in Rain Light Rain
6:48 PM 53.6 °F - 48.2 °F 82% 29.56 in 5.0 mi West 12.7 mph 20.7 mph 0.08 in Rain Light Rain
6:52 PM 53.1 °F - 48.9 °F 86% 29.57 in 5.0 mi West 8.1 mph 20.7 mph 0.08 in Rain Light Rain
7:40 PM 50.0 °F - 46.0 °F 86% 29.58 in 9.0 mi Variable 5.8 mph - 0.05 in Rain Light Rain
7:49 PM 50.0 °F - 46.4 °F 87% 29.59 in 10.0 mi Variable 5.8 mph - 0.05 in Rain Light Rain
7:52 PM 50.0 °F - 46.0 °F 86% 29.61 in 10.0 mi SSW 5.8 mph - 0.05 in Rain Light Rain
8:03 PM 48.9 °F - 45.0 °F 86% 29.60 in 10.0 mi WSW 9.2 mph 16.1 mph 0.00 in Rain Light Rain
8:14 PM 48.0 °F - 44.1 °F 86% 29.62 in 10.0 mi West 5.8 mph 17.3 mph 0.00 in Rain Light Rain
8:59 PM 44.1 °F 38.1 °F 37.9 °F 79% 29.67 in 10.0 mi West 11.5 mph 23.0 mph N/A   Overcast
9:32 PM 41.0 °F 34.7 °F 37.0 °F 86% 29.69 in 10.0 mi West 10.4 mph 18.4 mph 0.00 in Rain Light Rain
9:52 PM 39.0 °F 31.4 °F 35.1 °F 86% 29.73 in 10.0 mi West 12.7 mph 26.5 mph 0.00 in Rain Light Rain
10:01 PM 39.0 °F 32.8 °F 35.1 °F 86% 29.70 in 10.0 mi West 9.2 mph - 0.00 in   Overcast
10:52 PM 37.0 °F 28.9 °F 34.0 °F 89% 29.76 in 10.0 mi West 12.7 mph 19.6 mph 0.00 in Rain Light Rain
11:49 PM 33.8 °F 30.8 °F 30.2 °F 87% 29.75 in 2.5 mi Variable 3.5 mph - 0.05 in Snow Light Snow
11:52 PM 33.1 °F 28.7 °F 30.9 °F 92% 29.78 in 2.0 mi WNW 4.6 mph - 0.05 in Snow Light Snow
11:59 PM 33.1 °F 27.7 °F 30.9 °F 92% 29.75 in 1.5 mi WNW 5.8 mph - 0.01 in Snow Light Snow